Temperature
11 11 10 10 9 9 8 8 8 7 7 7 6 6 6 5 5 5 5 5 5 4 4 4 4 4 3 3 3 2 2 2 1 1 1 1 1 1 1 1 1 1 1
10 9 9 9 8 8 7 7 7 6 6 6 6 5 5 5 5 5 4 4 4 4 4 3 3 3 3 2 2 1 1 1 0 0 0 1 1 1 0 0 1 1 1
9 8 8 7 7 7 6 6 6 6 5 5 5 5 5 5 4 4 4 3 3 3 3 3 2 2 2 1 1 1 0 0 0 0 0 0 0 1 0 0 0 0 0
8 7 7 6 6 6 6 5 5 5 5 5 5 4 4 4 3 3 3 2 2 2 2 2 1 1 1 0 0 0 0 0 0 -0 -0 -0 0 0 -0 -0 -0 0 0
7 6 6 6 5 5 5 5 5 4 4 4 4 3 3 3 2 2 2 1 1 1 1 1 1 0 0 0 -0 -0 -0 -0 -0 -0 -0 -0 -0 -0 -0 -0 -0 -0 0
6 6 5 5 5 4 4 4 4 4 4 3 3 2 2 2 1 1 1 1 1 0 0 0 0 0 0 -0 -0 -0 -0 -0 -0 -0 -0 -0 -0 -0 -0 -0 -0 -0 -0
5 5 4 4 4 4 4 4 4 3 3 2 2 2 1 1 1 0 0 0 0 0 -0 -0 -0 -0 -0 -0 -0 0 0 0 0 0 -0 -0 -0 -0 -0 -0 -0 0 0
4 4 4 4 3 3 3 3 3 2 2 1 1 1 1 0 0 -0 -0 -0 0 -0 -0 -0 -0 -0 -0 -0 -0 -0 0 0 0 0 0 0 0 0 0 0 0 0 0
3 3 3 3 3 3 3 2 2 1 1 1 0 0 0 -0 -0 -0 -0 -0 -0 -0 -0 -0 -0 -0 -0 -0 -0 -0 0 0 0 0 0 0 0 -0 -0 -0 -0 -0 -0
3 3 3 3 3 2 2 2 1 1 0 0 0 -0 -0 -0 -1 -1 -1 -1 -0 -0 -0 -0 -0 -0 -0 -0 -0 -0 -0 -0 0 0 0 -0 -0 -0 -0 -0 -0 -1 -0
3 3 3 2 2 2 1 1 1 0 0 -0 -0 -0 -1 -1 -1 -1 -1 -1 -1 -1 -0 -0 -0 -0 -0 -0 -0 -0 -0 -0 -0 -0 -0 -0 -0 -0 -1 -1 -1 -1 -1
3 3 2 2 2 1 1 1 0 0 -0 -0 -0 -1 -1 -1 -1 -1 -1 -1 -1 -1 -0 -0 0 -0 0 0 0 -0 -0 -0 -0 -0 -0 -0 -1 -1 -1 -1 -1 -1 -0
3 2 2 2 1 1 1 0 0 -0 -0 -1 -1 -1 -1 -1 -1 -1 -1 -1 -1 -0 -0 -0 -0 0 0 0 0 0 0 0 -0 -0 -0 -0 -1 -1 -1 -1 -0 -0 -0
3 2 2 2 1 1 1 0 0 -0 -1 -1 -1 -1 -2 -2 -2 -1 -1 -1 -1 -1 -0 -0 0 0 0 0 0 0 0 0 0 -0 -0 -0 -1 -1 -1 -1 -0 -0 -0
3 2 2 1 1 1 0 0 -0 -1 -1 -1 -2 -2 -2 -2 -2 -2 -2 -1 -1 -1 -0 -0 -0 0 0 0 0 0 0 0 0 0 -0 -0 -1 -1 -1 -1 -0 -0 -0
3 2 2 2 1 1 0 0 -0 -1 -1 -1 -2 -2 -2 -2 -2 -2 -2 -1 -1 -1 -1 -0 -0 -0 0 0 0 0 1 1 0 0 -0 -1 -1 -1 -1 -1 -1 -0 -0
3 2 2 2 1 1 1 0 -0 -0 -1 -1 -2 -2 -2 -2 -2 -2 -2 -1 -1 -1 -1 -1 -1 -0 -0 0 0 0 1 1 1 0 -0 -0 -1 -1 -1 -1 -1 -1 -1
3 3 2 2 2 1 1 0 0 -0 -1 -1 -1 -2 -2 -2 -2 -2 -2 -1 -1 -1 -1 -1 -1 -0 -0 0 0 1 1 1 1 0 0 -0 -1 -1 -1 -1 -1 -1 -1
3 3 3 2 2 1 1 1 0 -0 -0 -1 -1 -2 -2 -2 -2 -2 -2 -2 -2 -1 -1 -1 -1 -0 -0 0 0 1 1 1 1 1 1 0 -0 -1 -1 -1 -1 -1 -1
3 3 3 2 2 2 1 1 1 0 -0 -1 -1 -2 -2 -2 -2 -2 -2 -2 -2 -1 -1 -1 -1 -0 -0 0 0 1 1 1 1 1 1 1 0 0 -0 -1 -1 -1 -1
4 3 3 3 2 2 2 1 1 0 -0 -1 -1 -2 -2 -2 -2 -2 -2 -2 -2 -1 -1 -1 -1 -0 -0 0 1 1 1 1 2 2 2 1 1 1 1 0 -0 -1 -1
4 4 3 3 2 2 2 1 1 0 -0 -1 -1 -1 -1 -1 -1 -1 -1 -1 -1 -1 -1 -1 -1 -0 -0 0 1 1 1 2 2 2 2 2 2 2 1 1 0 0 -0
4 3 3 3 2 2 1 1 1 0 -0 -1 -1 -1 -1 -1 -1 -1 -1 -1 -1 -1 -1 -1 -0 -0 -0 0 1 1 1 2 2 2 2 2 2 2 2 2 1 1 1
4 3 3 2 2 2 1 1 0 0 -0 -1 -1 -1 -1 -1 -1 -1 -1 -1 -1 -1 -1 -0 -0 -0 0 0 1 1 2 2 2 3 3 3 3 2 2 2 2 2 2
3 3 3 2 2 1 1 1 0 -0 -0 -1 -1 -1 -1 -1 -1 -1 -1 -1 -1 -1 -0 -0 0 0 0 1 1 1 2 2 2 3 3 3 3 3 3 3 3 3 2
3 3 2 2 1 1 1 0 0 -0 -1 -1 -1 -1 -1 -1 -1 -1 -1 -1 -1 -0 -0 0 0 0 1 1 1 2 2 2 3 3 3 3 3 3 3 3 3 3 3
Wind_Speed
9 9 10 9 8 8 8 8 7 6 5 4 3 2 2 4 4 5 4 5 5 5 5 5 5 5 4 5 5 5 5 5 11 9 5 6 7 10 12 15 18 17 18
8 9 9 8 9 8 7 7 6 6 5 4 5 6 7 8 8 7 7 6 6 6 6 6 7 6 7 6 5 6 6 7 8 13 8 6 8 9 10 11 12 16 15
8 9 9 9 9 8 8 7 7 7 7 7 7 8 8 7 6 5 5 4 5 6 6 7 8 7 8 7 7 7 7 9 7 10 11 7 7 9 9 11 13 10 15
9 9 9 8 8 8 8 8 8 8 7 7 7 7 6 5 4 4 4 4 6 7 7 7 8 8 9 9 8 8 8 8 9 10 11 10 9 9 8 10 11 9 10
10 9 8 8 8 8 8 8 8 7 7 6 6 5 3 2 2 2 4 6 7 8 9 9 9 13 15 11 10 9 9 9 9 10 11 11 10 9 9 8 11 10 10
10 8 8 8 8 8 7 7 7 6 6 6 5 3 2 1 2 5 6 6 7 8 10 10 11 11 14 18 20 19 17 13 11 11 11 11 12 11 9 9 10 11 8
9 8 7 7 7 7 7 6 6 5 5 5 3 2 2 3 4 6 10 7 8 8 9 9 11 12 14 10 14 19 18 20 19 13 12 12 11 10 10 11 10 11 10
8 7 7 6 7 7 7 6 5 4 3 3 3 3 2 3 5 7 11 8 8 9 9 10 10 11 11 12 12 12 12 12 13 10 10 11 10 10 9 10 10 9 9
7 6 5 6 7 6 6 4 3 3 3 3 3 4 4 4 7 8 10 7 8 10 10 10 11 10 13 15 12 11 12 11 12 13 12 11 13 13 10 7 6 7 7
5 5 5 5 6 5 4 3 3 3 3 4 5 5 4 4 7 10 11 6 8 9 10 10 12 12 14 15 10 10 11 10 11 11 9 9 7 7 8 5 5 6 5
5 5 5 5 5 4 3 3 4 4 5 5 5 5 5 6 8 11 13 7 8 10 9 9 9 14 16 15 12 8 11 11 9 8 7 6 6 5 5 5 5 5 4
5 5 5 4 4 4 4 4 5 5 5 5 5 6 5 6 8 11 15 14 12 9 9 8 9 15 16 14 10 10 13 10 6 6 5 5 5 5 5 6 6 5 4
4 4 4 5 4 4 4 5 5 5 4 4 4 5 6 6 7 13 15 16 16 10 8 12 14 15 13 9 11 13 10 6 5 5 5 5 4 5 6 5 5 5 4
4 4 4 4 3 4 4 4 3 3 3 3 4 5 6 6 6 8 9 10 12 10 9 10 13 12 10 10 9 8 6 5 5 5 6 5 4 5 5 5 4 5 4
5 4 4 3 3 2 2 2 3 2 2 0 2 4 6 6 9 13 9 7 8 8 8 5 5 7 8 7 7 7 7 6 6 5 5 5 5 5 5 5 5 5 5
5 3 2 2 1 2 1 1 2 4 4 2 3 5 5 7 12 13 14 14 14 14 7 6 7 7 8 8 8 7 6 7 6 5 5 5 6 6 6 6 5 6 6
4 3 2 2 2 2 2 2 1 2 3 4 6 8 8 10 12 14 15 13 12 12 6 6 7 7 8 8 8 7 7 7 6 5 4 5 5 6 6 6 7 6 7
2 2 3 3 3 2 2 2 2 1 1 3 5 7 10 11 11 13 14 10 7 8 6 7 7 8 8 8 8 8 8 8 7 5 5 4 5 6 6 7 7 8 8
1 1 2 2 2 2 2 1 1 2 1 1 3 5 8 10 9 10 10 6 6 7 7 7 7 7 8 8 8 8 8 8 8 6 4 4 4 4 5 6 7 10 9
2 4 3 2 1 1 1 1 1 1 1 1 3 4 5 5 5 6 6 6 6 6 7 7 7 7 7 8 8 8 8 8 9 7 5 4 3 3 3 5 5 6 7
2 2 3 2 1 2 2 2 2 2 2 1 1 3 6 4 5 6 6 6 6 6 6 7 7 7 7 7 8 9 9 8 8 8 7 4 2 2 2 2 3 4 5
2 2 2 2 2 2 2 2 2 2 2 2 1 3 7 5 5 5 6 6 6 5 5 6 6 6 6 7 7 8 8 8 8 8 7 5 3 2 2 2 2 3 4
4 4 3 2 2 4 4 3 3 3 3 2 1 2 4 5 5 6 6 6 6 5 7 7 6 6 8 9 8 6 6 7 7 7 7 5 4 3 2 3 4 5 5
5 5 5 4 3 4 4 4 4 4 3 3 3 2 3 4 5 6 6 6 5 7 9 9 8 9 12 12 11 11 11 12 11 8 6 5 5 4 4 4 4 5 6
5 5 5 4 4 4 4 4 4 4 4 4 3 3 4 5 6 6 7 5 7 7 10 11 11 11 13 14 14 15 17 17 15 13 9 5 6 5 5 5 4 5 5
5 5 4 4 4 4 4 4 4 5 5 4 4 4 5 5 6 7 7 6 6 7 10 12 14 15 15 15 17 18 17 17 17 16 12 6 7 6 5 5 6 5 5
Wind_Direction
97 98 97 96 99 100 101 103 105 104 108 108 107 88 51 37 35 38 26 18 14 359 352 339 318 305 295 291 282 271 264 261 283 287 261 266 270 275 286 286 286 283 282
100 96 93 92 93 94 94 92 89 84 74 70 64 67 70 67 60 54 39 28 15 355 339 329 316 314 303 290 279 269 266 258 268 286 286 275 269 271 274 277 287 287 283
92 90 85 86 88 88 85 79 74 71 65 61 68 76 81 78 67 55 41 19 351 329 317 310 303 302 296 290 280 273 270 273 262 275 285 277 273 276 279 281 280 277 282
87 85 81 78 79 79 74 69 66 67 67 70 79 92 94 88 74 46 22 358 335 321 311 302 296 291 284 283 283 275 276 276 273 274 280 282 279 274 271 277 283 275 276
85 80 77 74 72 69 67 65 65 66 74 80 91 102 115 106 65 36 359 343 327 317 312 304 299 304 306 307 305 295 287 282 280 279 282 283 280 279 274 272 279 281 274
82 78 73 70 68 69 69 69 67 64 63 71 80 89 63 22 343 357 352 328 316 310 308 307 306 305 310 313 310 307 302 296 291 285 284 282 282 278 278 277 278 280 282
73 73 73 73 71 63 70 68 62 59 62 66 60 49 9 317 319 335 340 335 315 307 303 304 311 310 311 302 304 307 303 298 294 289 285 284 284 282 281 281 277 277 277
77 78 78 79 80 77 71 62 56 56 59 52 34 22 4 339 336 335 339 335 314 306 303 300 300 301 305 308 309 305 301 297 295 294 285 285 285 284 281 281 285 284 274
86 84 85 95 96 85 72 59 49 53 42 34 25 25 19 350 351 347 347 325 313 309 306 305 306 304 305 314 315 309 307 306 308 301 294 290 290 291 295 297 294 296 296
98 96 99 103 102 97 86 63 44 57 45 34 30 22 16 356 348 347 346 325 317 316 312 310 311 309 312 317 316 310 311 314 315 315 313 310 306 305 312 309 312 311 308
101 92 95 108 111 103 79 57 54 54 43 32 21 2 355 347 340 339 341 336 321 317 314 314 313 314 317 317 315 308 308 312 310 310 311 314 319 321 318 313 311 311 310
101 93 88 84 91 93 80 57 49 54 43 23 5 351 339 333 333 332 333 331 328 317 312 314 314 318 321 322 321 317 319 323 318 320 324 324 326 330 327 320 315 313 310
110 109 100 87 75 85 89 77 57 47 40 10 356 342 329 327 329 333 332 330 332 330 316 319 323 327 331 329 325 327 328 326 325 327 327 322 322 328 330 328 324 324 323
125 125 122 111 86 76 85 96 86 59 37 8 351 336 326 326 333 337 332 329 332 334 328 326 329 333 341 337 334 334 330 325 325 323 326 325 331 341 346 343 339 344 345
118 128 128 127 126 120 116 146 144 178 182 181 320 316 324 330 329 330 333 333 336 331 328 334 346 346 350 347 342 338 337 340 342 341 343 352 358 1 360 354 358 1 10
116 127 141 146 152 165 176 283 239 210 212 232 309 328 312 317 330 342 347 347 349 352 358 351 350 349 347 346 345 343 339 345 347 353 359 5 10 13 12 11 12 20 25
133 152 164 171 175 175 178 186 273 305 292 292 302 331 344 346 351 353 351 347 355 3 7 353 351 349 347 348 348 346 346 346 351 358 4 11 17 20 21 23 23 27 32
141 169 174 188 190 189 181 180 175 169 312 318 315 330 349 352 351 355 353 354 1 4 358 352 349 347 347 350 350 350 352 355 359 1 6 16 25 31 33 31 32 33 36
169 204 209 197 188 192 180 157 147 150 175 330 343 343 344 343 342 351 357 3 355 353 351 349 346 346 349 351 349 351 354 357 360 3 7 13 24 37 40 37 39 35 39
245 234 207 192 189 176 160 148 133 124 122 43 3 346 340 346 354 352 354 352 351 349 347 345 344 346 349 351 351 353 356 359 1 4 4 8 20 36 54 53 46 43 46
238 233 199 138 143 158 154 156 154 144 136 107 356 351 357 354 351 349 350 349 348 344 343 342 342 346 350 351 352 353 356 358 359 359 1 4 12 25 37 65 63 52 54
153 157 147 143 143 144 136 115 115 116 118 117 14 351 359 0 354 352 349 347 345 340 337 339 340 343 345 346 347 349 351 353 353 354 353 356 5 10 20 51 72 71 65
93 100 99 104 105 94 83 80 92 98 101 106 91 17 1 359 359 357 352 349 346 343 347 349 348 348 348 344 343 340 338 333 327 326 338 351 13 33 46 61 75 84 83
92 93 91 88 87 86 88 82 82 87 85 77 66 37 5 359 1 3 360 354 350 353 358 359 357 352 351 350 347 344 339 334 331 329 334 2 26 44 57 68 77 93 100
92 91 87 87 88 87 84 80 76 73 71 68 62 45 19 13 10 8 4 0 3 4 6 6 4 359 353 350 350 347 347 354 2 4 6 17 36 48 61 70 77 90 100
80 85 82 80 79 82 85 84 79 76 70 65 58 46 29 23 18 13 9 8 8 8 8 7 3 3 2 358 352 354 360 7 12 18 25 30 39 44 52 58 70 77 91
Height
1504 1505 1506 1507 1508 1510 1512 1513 1515 1516 1517 1518 1518 1518 1518 1518 1517 1516 1515 1513 1511 1508 1506 1504 1501 1498 1495 1493 1490 1487 1484 1481 1473 1467 1467 1465 1462 1459 1455 1452 1449 1446 1443
1506 1506 1507 1508 1509 1511 1512 1514 1515 1516 1517 1517 1517 1517 1516 1515 1514 1513 1511 1509 1507 1504 1501 1498 1495 1492 1489 1486 1483 1480 1477 1474 1469 1461 1458 1457 1454 1451 1448 1444 1441 1438 1435
1507 1507 1508 1509 1510 1511 1512 1514 1514 1515 1515 1515 1515 1515 1514 1513 1511 1509 1507 1505 1502 1499 1496 1492 1489 1486 1482 1479 1476 1473 1470 1467 1463 1458 1452 1450 1446 1444 1440 1437 1434 1431 1428
1508 1508 1509 1510 1511 1512 1513 1513 1514 1514 1514 1514 1513 1512 1512 1510 1508 1506 1503 1501 1497 1494 1490 1487 1484 1480 1477 1474 1471 1467 1464 1460 1456 1452 1446 1442 1439 1437 1434 1430 1426 1423 1420
1509 1509 1510 1511 1512 1512 1513 1513 1513 1513 1513 1512 1512 1510 1509 1507 1505 1502 1500 1497 1493 1489 1486 1483 1479 1476 1473 1470 1466 1462 1458 1453 1449 1445 1440 1436 1432 1429 1427 1423 1419 1416 1413
1509 1510 1511 1512 1512 1513 1513 1514 1513 1513 1512 1511 1510 1509 1507 1505 1502 1500 1497 1494 1490 1486 1482 1478 1475 1471 1468 1464 1461 1457 1453 1448 1443 1439 1434 1430 1426 1423 1420 1417 1413 1410 1405
1511 1512 1513 1513 1513 1514 1514 1514 1513 1512 1511 1510 1508 1507 1505 1503 1500 1498 1494 1491 1487 1483 1478 1474 1470 1467 1464 1459 1455 1451 1447 1443 1438 1434 1429 1424 1421 1418 1414 1411 1407 1404 1400
1513 1514 1514 1515 1515 1515 1515 1514 1513 1512 1510 1509 1507 1505 1503 1501 1498 1495 1492 1488 1484 1480 1476 1471 1467 1463 1459 1455 1450 1446 1441 1437 1433 1428 1424 1420 1416 1413 1410 1406 1402 1398 1394
1515 1516 1516 1517 1516 1516 1515 1513 1512 1511 1509 1508 1506 1504 1501 1499 1496 1493 1489 1484 1481 1477 1472 1468 1464 1460 1456 1452 1447 1442 1438 1433 1429 1425 1421 1417 1413 1409 1406 1402 1398 1394 1390
1517 1518 1518 1518 1517 1516 1515 1514 1512 1511 1509 1507 1505 1503 1500 1497 1494 1491 1486 1482 1478 1473 1469 1466 1462 1458 1453 1449 1444 1440 1435 1431 1426 1422 1418 1414 1410 1407 1403 1399 1395 1392 1388
1519 1519 1519 1519 1518 1516 1515 1514 1512 1510 1509 1506 1504 1502 1499 1496 1492 1489 1485 1480 1476 1471 1468 1464 1460 1456 1452 1447 1443 1439 1434 1430 1425 1421 1417 1413 1409 1405 1401 1397 1394 1390 1387
1521 1520 1520 1519 1518 1517 1515 1514 1512 1510 1508 1506 1503 1500 1498 1494 1491 1487 1483 1479 1475 1471 1466 1463 1459 1455 1451 1446 1442 1438 1434 1430 1425 1421 1417 1412 1408 1404 1400 1396 1393 1390 1387
1522 1521 1521 1520 1519 1517 1516 1514 1512 1510 1508 1505 1502 1499 1496 1493 1489 1485 1481 1477 1473 1470 1466 1462 1459 1455 1451 1446 1443 1438 1434 1430 1426 1421 1417 1412 1408 1404 1400 1397 1394 1391 1388
1523 1522 1522 1521 1519 1518 1516 1515 1513 1510 1508 1505 1502 1498 1495 1491 1487 1483 1480 1476 1472 1469 1466 1462 1459 1455 1451 1447 1443 1439 1435 1431 1426 1422 1417 1413 1409 1405 1401 1398 1396 1393 1390
1523 1523 1522 1521 1520 1518 1517 1515 1513 1511 1508 1506 1502 1498 1494 1490 1487 1483 1480 1476 1473 1469 1466 1463 1459 1456 1452 1448 1445 1440 1436 1432 1428 1423 1419 1415 1411 1407 1403 1401 1398 1395 1393
1524 1524 1522 1521 1520 1518 1517 1515 1513 1511 1508 1505 1502 1498 1494 1491 1487 1484 1480 1477 1473 1470 1467 1464 1460 1457 1454 1450 1446 1442 1438 1434 1430 1426 1422 1417 1413 1410 1407 1404 1401 1399 1396
1525 1524 1523 1521 1520 1519 1517 1515 1513 1511 1509 1506 1502 1499 1495 1491 1487 1484 1480 1477 1474 1471 1468 1465 1462 1459 1456 1452 1449 1445 1441 1437 1434 1430 1426 1422 1417 1413 1410 1408 1405 1403 1400
1526 1525 1523 1522 1520 1519 1517 1515 1513 1511 1509 1507 1503 1499 1495 1492 1488 1484 1481 1478 1476 1473 1470 1467 1464 1461 1458 1455 1452 1448 1444 1441 1437 1434 1430 1427 1423 1419 1415 1413 1410 1408 1406
1527 1526 1524 1522 1521 1519 1518 1516 1514 1512 1510 1507 1504 1500 1496 1493 1489 1486 1483 1480 1477 1475 1472 1469 1466 1463 1461 1458 1455 1452 1448 1445 1442 1438 1435 1432 1429 1425 1422 1419 1416 1414 1412
1527 1526 1525 1523 1521 1520 1518 1517 1515 1513 1511 1508 1505 1501 1498 1494 1491 1488 1485 1482 1479 1477 1474 1472 1469 1466 1464 1461 1458 1455 1452 1449 1446 1443 1440 1437 1435 1432 1429 1426 1423 1421 1418
1527 1525 1524 1523 1522 1520 1519 1517 1515 1514 1511 1509 1506 1503 1499 1496 1493 1490 1487 1484 1482 1479 1476 1474 1471 1469 1466 1464 1462 1459 1457 1454 1451 1448 1445 1443 1440 1438 1435 1432 1430 1427 1425
1526 1525 1524 1523 1522 1521 1519 1518 1516 1514 1513 1510 1508 1505 1502 1498 1495 1492 1490 1487 1484 1482 1479 1477 1474 1472 1470 1467 1465 1463 1461 1458 1456 1453 1451 1448 1445 1443 1441 1439 1437 1434 1432
1527 1526 1525 1524 1523 1522 1520 1519 1517 1516 1514 1512 1509 1507 1504 1501 1498 1495 1492 1490 1487 1484 1482 1479 1477 1475 1473 1471 1469 1467 1465 1463 1461 1458 1456 1453 1451 1449 1447 1445 1444 1442 1440
1528 1527 1526 1525 1524 1523 1521 1520 1519 1517 1515 1513 1511 1509 1506 1503 1501 1498 1495 1493 1490 1487 1485 1482 1480 1478 1476 1474 1473 1471 1469 1467 1465 1463 1461 1459 1457 1455 1453 1452 1451 1450 1449
1530 1529 1527 1526 1525 1524 1523 1521 1520 1518 1517 1515 1513 1511 1508 1506 1504 1501 1499 1496 1493 1491 1488 1486 1483 1481 1479 1478 1476 1475 1474 1472 1470 1469 1467 1464 1463 1461 1460 1459 1458 1457 1456
1532 1531 1529 1528 1527 1525 1524 1523 1521 1520 1518 1516 1514 1512 1511 1509 1507 1504 1502 1500 1497 1495 1492 1490 1487 1485 1484 1482 1480 1479 1478 1476 1475 1474 1472 1470 1469 1467 1466 1465 1464 1464 1463